Weather History for KDFW - March, 2013

Change the Weather History Date:

Saturday, March 9, 2013

  Actual Average Record
Temperature  
Mean Temperature 65 °F 56 °F  
Max Temperature 70 °F 66 °F 100 °F (1911)
Min Temperature 60 °F 45 °F 20 °F (1996)
Degree Days  
Heating Degree Days 0 10  
Month to date heating degree days 103 99  
Since 1 July heating degree days 1693 2031  
Cooling Degree Days 0 1  
Month to date cooling degree days 7 7  
Year to date cooling degree days 19 14  
Growing Degree Days 14 (Base 50)    
Moisture  
Dew Point 59 °F    
Average Humidity 78    
Maximum Humidity 84    
Minimum Humidity 72    
Precipitation  
Precipitation 1.18 in 0.11 in 1.59 in (1953)
Month to date precipitation 1.19 1.02  
Year to date precipitation 6.93 5.81  
Snow  
Snow 0.00 in 0.00 in 2.20 in (1915)
Month to date snowfall 0.0 0.0  
Since 1 July snowfall 0.8 1.0  
Snow Depth 0.00 in    
Sea Level Pressure  
Sea Level Pressure 29.77 in    
Wind  
Wind Speed 16 mph (SSE)    
Max Wind Speed 32 mph    
Max Gust Speed 40 mph    
Visibility 8 miles    
Events Rain , Thunderstorm    
T = Trace of Precipitation, MM = Missing Value Source: NWS Daily Summary

Daily Weather History Graph

Daily Weather History Graph

Search for Another Location

Airport or City:

Trip Planner

Search our weather history database for the weather conditions in past years. The results will help you decide how hot, cold, wet, or windy it might be!

Date:

Astronomy

Mar. 09, 2013 Rise Set
Actual Time 6:45 AM CST 6:31 PM CST
Civil Twilight 6:21 AM CST 6:56 PM CST
Nautical Twilight 5:52 AM CST 7:24 PM CST
Astronomical Twilight 5:23 AM CST 7:53 PM CST
Moon 5:05 AM CST (3/9) 4:39 PM CST (3/9)
Length of Visible Light 12h 35m
Length of Day
11h 46m
Waning Crescent, 5% of the Moon is Illuminated
Mar 9
Waning Crescent
Mar 11
New
Mar 19
First Quarter
Mar 27
Full
Apr 2
Last Quarter

Hourly Weather History & Observations

Time (CST) Temp. Dew Point Humidity Pressure Visibility Wind Dir Wind Speed Gust Speed Precip Events Conditions
12:53 AM 62.1 °F 54.0 °F 75% 29.94 in 10.0 mi SSE 18.4 mph 28.8 mph N/A   Overcast
1:53 AM 61.0 °F 54.0 °F 78% 29.93 in 10.0 mi SSE 17.3 mph - N/A   Overcast
2:10 AM 61.0 °F 54.0 °F 78% 29.93 in 10.0 mi SSE 18.4 mph 24.2 mph N/A   Overcast
2:53 AM 61.0 °F 55.0 °F 81% 29.90 in 10.0 mi South 20.7 mph - N/A   Overcast
3:08 AM 61.0 °F 55.0 °F 81% 29.90 in 10.0 mi South 17.3 mph 27.6 mph N/A   Overcast
3:21 AM 61.0 °F 55.0 °F 81% 29.90 in 10.0 mi South 17.3 mph 25.3 mph N/A   Overcast
3:48 AM 60.8 °F 55.4 °F 82% 29.90 in 10.0 mi SSE 12.7 mph - N/A   Overcast
3:53 AM 61.0 °F 55.0 °F 81% 29.88 in 10.0 mi SSE 12.7 mph - N/A   Overcast
4:53 AM 61.0 °F 55.0 °F 81% 29.87 in 10.0 mi SSE 18.4 mph - N/A   Overcast
5:53 AM 62.1 °F 55.9 °F 80% 29.86 in 10.0 mi SSE 17.3 mph 24.2 mph N/A   Overcast
6:53 AM 62.1 °F 55.9 °F 80% 29.84 in 10.0 mi SSE 19.6 mph 25.3 mph N/A   Overcast
7:53 AM 62.6 °F 57.2 °F 82% 29.85 in 7.0 mi SSE 21.9 mph 33.4 mph N/A   Overcast
8:53 AM 63.0 °F 57.9 °F 84% 29.83 in 8.0 mi SSE 18.4 mph 29.9 mph N/A   Overcast
9:53 AM 64.9 °F 59.0 °F 81% 29.83 in 9.0 mi South 19.6 mph - N/A   Overcast
10:33 AM 66.0 °F 59.0 °F 78% 29.84 in 10.0 mi South 17.3 mph 26.5 mph N/A   Overcast
10:53 AM 66.9 °F 60.1 °F 79% 29.82 in 10.0 mi South 18.4 mph - N/A   Overcast
11:53 AM 68.0 °F 60.1 °F 76% 29.80 in 10.0 mi South 24.2 mph 33.4 mph N/A   Overcast
12:53 PM 68.0 °F 61.0 °F 78% 29.78 in 10.0 mi South 19.6 mph 32.2 mph N/A   Overcast
1:20 PM 68.0 °F 61.0 °F 78% 29.77 in 10.0 mi South 18.4 mph 29.9 mph N/A   Overcast
1:53 PM 68.0 °F 62.1 °F 81% 29.74 in 10.0 mi South 20.7 mph 26.5 mph N/A   Overcast
2:53 PM 68.0 °F 63.0 °F 84% 29.70 in 10.0 mi South 15.0 mph 27.6 mph N/A   Overcast
3:53 PM 69.1 °F 63.0 °F 81% 29.68 in 10.0 mi South 26.5 mph 31.1 mph N/A   Overcast
4:53 PM 69.1 °F 63.0 °F 81% 29.62 in 10.0 mi South 24.2 mph 38.0 mph N/A   Mostly Cloudy
5:49 PM 68.0 °F 62.6 °F 83% 29.68 in 10.0 mi South 13.8 mph - N/A   Overcast
5:53 PM 68.0 °F 63.0 °F 84% 29.67 in 10.0 mi South 13.8 mph - N/A   Overcast
6:48 PM 69.8 °F 62.6 °F 78% 29.69 in 10.0 mi South 15.0 mph - N/A Thunderstorm Thunderstorm
6:53 PM 69.1 °F 62.1 °F 78% 29.67 in 10.0 mi South 15.0 mph - N/A Thunderstorm Thunderstorm
7:53 PM 68.0 °F 61.0 °F 78% 29.69 in 10.0 mi SSW 6.9 mph - N/A Thunderstorm Thunderstorm
8:10 PM 64.9 °F 57.0 °F 75% 29.71 in 10.0 mi NW 11.5 mph - N/A Thunderstorm Thunderstorm
8:53 PM 61.0 °F 57.9 °F 90% 29.69 in 6.0 mi NNE 4.6 mph - 0.04 in Rain , Thunderstorm Thunderstorms and Rain
9:31 PM 61.0 °F 57.9 °F 90% 29.75 in 2.5 mi SSW 8.1 mph - 0.17 in Rain , Thunderstorm Thunderstorms and Rain
9:44 PM 61.0 °F 59.0 °F 93% 29.71 in 2.5 mi ENE 6.9 mph - 0.22 in   Overcast
9:49 PM 60.8 °F - N/A% 29.72 in 2.5 mi ENE 6.9 mph - 0.22 in   Overcast
9:53 PM 66.2 °F 59.0 °F 78% 29.72 in 2.5 mi ENE 6.9 mph - 0.22 in   Overcast
10:05 PM 66.0 °F 59.0 °F 78% 29.70 in 8.0 mi ENE 3.5 mph - N/A   Overcast
10:18 PM 68.0 °F 59.0 °F 73% 29.72 in 4.0 mi NNE 8.1 mph - N/A Rain , Thunderstorm Thunderstorms and Rain
10:26 PM 68.0 °F 59.0 °F 73% 29.70 in 2.0 mi NNE 8.1 mph - N/A Rain , Thunderstorm Thunderstorms and Rain
10:38 PM 66.0 °F 60.1 °F 81% 29.70 in 3.0 mi NNE 8.1 mph - N/A Rain , Thunderstorm Light Thunderstorms and Rain
10:53 PM 63.0 °F 60.1 °F 90% 29.68 in 3.0 mi NNE 6.9 mph - N/A Rain , Thunderstorm Light Thunderstorms and Rain
11:01 PM 63.0 °F 60.1 °F 90% 29.70 in 1.8 mi NNE 6.9 mph - N/A Rain , Thunderstorm Light Thunderstorms and Rain
11:03 PM 64.0 °F 60.1 °F 87% 29.70 in 1.8 mi NNE 6.9 mph - N/A Rain , Thunderstorm Light Thunderstorms and Rain
11:14 PM 64.0 °F 60.1 °F 87% 29.72 in 3.0 mi NNE 6.9 mph - N/A Rain , Thunderstorm Light Thunderstorms and Rain
11:34 PM 64.0 °F 60.1 °F 87% 29.71 in 2.0 mi NNW 5.8 mph - N/A Rain Light Rain
11:47 PM 60.8 °F 57.2 °F 88% 29.71 in 1.5 mi NNW 5.8 mph - N/A Rain Light Rain
11:53 PM 60.1 °F 57.9 °F 93% 29.71 in 2.0 mi NNW 5.8 mph - N/A Rain Light Rain